Regional Weather Roundup
Issued by NWS

Home | Current Version | Previous Version | Graphics & Text | Print | Product List | Glossary On
Versions: 1 2 3 4 5 6 7 8 9 10 11 12 13 14 15 16 17 18 19 20 21 22 23 24 25 26 27 28 29 30 31 32 33 34 35 36 37 38 39 40 41 42 43 44 45 46 47 48 49 50
000
ASUS43 KTOP 262008
RWRKS

WEATHER ROUNDUP FOR KANSAS
NATIONAL WEATHER SERVICE GOODLAND KS
300 PM CDT MON SEP 26 2016

NOTE:  "FAIR" INDICATES FEW OR NO CLOUDS BELOW 12,000 FEET WITH NO
SIGNIFICANT WEATHER AND/OR OBSTRUCTIONS TO VISIBILITY.

KSZ001>006-013>018-027>032-041>047-262100-
NORTHWEST KANSAS

CITY           SKY/WX    TMP DP  RH WIND       PRES   REMARKS
GOODLAND       SUNNY     78  36  21 NW14G20   30.26F
HAYS           SUNNY     79  34  19 W10G17    30.23F
HILL CITY      SUNNY     76  39  26 W12G21    30.23F HAZE
RUSSELL        SUNNY     75  35  23 SW9       30.23F
$$

KSZ061>065-074>080-084>089-262100-
SOUTHWEST KANSAS

CITY           SKY/WX    TMP DP  RH WIND       PRES   REMARKS
DODGE CITY     SUNNY     76  29  17 VRB6      30.28F
ELKHART          N/A     76  36  23 N3          N/A
GARDEN CITY    SUNNY     76  30  18 W7        30.27F
GREAT BEND     SUNNY     73  34  23 W8        30.25F
LIBERAL        SUNNY     73  32  21 CALM      30.30F
PRATT          SUNNY     71  32  23 N6        30.27F
$$

KSZ066>073-081>083-090>101-262100-
SOUTHEAST KANSAS

CITY           SKY/WX    TMP DP  RH WIND       PRES   REMARKS
CHANUTE        SUNNY     73  39  29 N7        30.22F
COFFEYVILLE    SUNNY     74  40  29 N12       30.22F
HUTCHINSON     SUNNY     73  38  27 CALM      30.25F
MEDICINE LODGE   N/A     72  35  25 CALM      30.26F
NEWTON         SUNNY    N/A N/A N/A VRB6      30.26F
PARSONS        SUNNY     74  40  29 VRB6      30.24F
WICHITA INTL   MOSUNNY   74  40  29 N5        30.25F
WICHITA JABRA  SUNNY     73  44  35 VRB3      30.24F
WICHITA MCCONL SUNNY     73  41  32 VRB6      30.25F
WINFIELD       SUNNY     73  40  30 N9        30.25F
$$

KSZ007>012-019>026-033>040-048>060-102>105-262100-
NORTHEAST KANSAS

CITY           SKY/WX    TMP DP  RH WIND       PRES   REMARKS
CONCORDIA      MOSUNNY   74  38  27 W12       30.22F
EMPORIA        SUNNY     71  41  33 W6        30.23F
LAWRENCE       SUNNY     73  42  32 W10G18    30.20F
MANHATTAN      SUNNY     74  41  30 W9        30.21F
MARYSVILLE     SUNNY     73  41  31 NW9       30.19F
OLATHE IND     SUNNY     71  40  32 W12       30.21F
OLATHE EXE     SUNNY     70  37  29 NW9       30.21F
SALINA         SUNNY     76  37  24 NW6       30.23F
TOPEKA BILLARD SUNNY     74  41  30 NW8       30.20F
TOPEKA FORBES  SUNNY     74  42  31 W7        30.21F
$$



USA.gov is the U.S. government's official web portal to all federal, state and local government web resources and services.